Location: Roc des P�zouls
(43.9667°N, 3.5500°E)
Time: 21:09:36
(UTC+00:00)

STARLINK-32 - Pass Details

Date: 14 November 2019
Orbit: 529 x 530 km, 53.0° (Epoch: 12 December)

Event Time Altitude Azimuth Distance (km) Brightness Sun altitude
Rises 05:59:43 0° 218° (SW) 2,651 6.9 -7.4°
Reaches altitude 10° 06:01:59 10° 212° (SSW) 1,766 6.1 -7.0°
Maximum altitude 06:05:49 47° 139° (SE) 708 4.7 -6.3°
Drops below altitude 10° 06:09:41 10° 65° (ENE) 1,775 6.9 -5.7°
Sets 06:11:57 0° 59° (ENE) 2,667 7.7 -5.3°
